• In Hungary
  • List of Countries
  • For 7 days
  • Water Temperature
  • Satellite Maps
  • Weather Map
  • News
  • Weather Widgets
  • user-avatar
    Login

    Hourly Weather Agartala

    Today, 25 September, Monday

    Time Temperature Precipitation Wind Pressure Humidity
    00:00 +30°C° 0.2 mm 1 mps 752 mmHg 79%
    01:00 +30°C° 0.1 mm 1 mps 751 mmHg 80%
    02:00 +29°C° 0.1 mm 1 mps 751 mmHg 81%
    03:00 +29°C° 0.1 mm 1 mps 751 mmHg 83%
    04:00 +29°C° 0.2 mm 1 mps 751 mmHg 84%
    05:00 +29°C° 0.2 mm 1 mps 751 mmHg 85%
    06:00 +28°C° 0.2 mm 1 mps 751 mmHg 87%
    07:00 +28°C° 0.1 mm 0 mps 752 mmHg 81%
    08:00 +30°C° 0.1 mm 0 mps 752 mmHg 75%
    09:00 +32°C° 0.1 mm 0 mps 752 mmHg 69%
    10:00 +33°C° 0 mm 0 mps 752 mmHg 65%
    11:00 +36°C° 0 mm 1 mps 751 mmHg 61%
    12:00 +37°C° 0 mm 1 mps 751 mmHg 57%
    13:00 +37°C° 0 mm 1 mps 750 mmHg 57%
    14:00 +36°C° 0 mm 1 mps 749 mmHg 58%
    15:00 +36°C° 0 mm 1 mps 748 mmHg 59%
    16:00 +35°C° 0 mm 1 mps 748 mmHg 62%
    17:00 +34°C° 0 mm 1 mps 748 mmHg 66%
    18:00 +33°C° 0 mm 1 mps 748 mmHg 70%
    19:00 +32°C° 0 mm 1 mps 749 mmHg 71%
    20:00 +32°C° 0 mm 1 mps 750 mmHg 72%
    21:00 +29°C° 0 mm 0 mps 751 mmHg 73%
    22:00 +31°C° 0 mm 1 mps 751 mmHg 75%
    23:00 +31°C° 0 mm 1 mps 751 mmHg 77%

    Tomorrow, 26 September, Tuesday

    Time Temperature Precipitation Wind Pressure Humidity
    00:00 +30°C° 0 mm 1 mps 751 mmHg 78%
    01:00 +30°C° 0.1 mm 1 mps 751 mmHg 80%
    02:00 +30°C° 0.1 mm 1 mps 751 mmHg 82%
    03:00 +29°C° 0.1 mm 1 mps 750 mmHg 84%
    04:00 +29°C° 0.2 mm 1 mps 751 mmHg 85%
    05:00 +29°C° 0.2 mm 1 mps 751 mmHg 86%
    06:00 +29°C° 0.2 mm 1 mps 751 mmHg 86%
    07:00 +31°C° 1 mm 1 mps 751 mmHg 83%
    08:00 +32°C° 1 mm 1 mps 752 mmHg 79%
    09:00 +33°C° 1 mm 1 mps 752 mmHg 76%
    10:00 +34°C° 0.5 mm 1 mps 752 mmHg 71%
    11:00 +35°C° 0.5 mm 1 mps 751 mmHg 67%
    12:00 +36°C° 0.5 mm 1 mps 751 mmHg 62%
    13:00 +36°C° 0 mm 1 mps 750 mmHg 61%
    14:00 +36°C° 0 mm 1 mps 750 mmHg 61%
    15:00 +36°C° 0 mm 1 mps 749 mmHg 60%
    16:00 +35°C° 0.1 mm 1 mps 749 mmHg 65%
    17:00 +34°C° 0.1 mm 1 mps 749 mmHg 69%
    18:00 +33°C° 0.1 mm 1 mps 750 mmHg 73%
    19:00 +32°C° 0 mm 1 mps 750 mmHg 74%
    20:00 +32°C° 0 mm 1 mps 751 mmHg 75%
    21:00 +31°C° 0 mm 1 mps 752 mmHg 77%
    22:00 +31°C° 0.1 mm 1 mps 752 mmHg 79%
    23:00 +30°C° 0.1 mm 2 mps 752 mmHg 82%

    Day after tomorrow, 27 September, Wednesday

    Time Temperature Precipitation Wind Pressure Humidity
    00:00 +30°C° 0.1 mm 2 mps 752 mmHg 84%
    01:00 +30°C° 0.4 mm 2 mps 751 mmHg 86%
    02:00 +29°C° 0.4 mm 2 mps 751 mmHg 87%
    03:00 +29°C° 0.4 mm 2 mps 751 mmHg 89%
    04:00 +29°C° 0.3 mm 1 mps 751 mmHg 89%
    05:00 +29°C° 0.3 mm 1 mps 751 mmHg 90%
    06:00 +29°C° 0.3 mm 1 mps 752 mmHg 91%
    07:00 +30°C° 0.8 mm 1 mps 752 mmHg 89%
    08:00 +30°C° 0.8 mm 1 mps 753 mmHg 87%
    09:00 +31°C° 0.8 mm 2 mps 753 mmHg 84%
    10:00 +33°C° 0.3 mm 1 mps 753 mmHg 77%
    11:00 +34°C° 0.3 mm 1 mps 752 mmHg 71%
    12:00 +36°C° 0.3 mm 1 mps 752 mmHg 64%
    13:00 +36°C° 0.3 mm 1 mps 751 mmHg 64%
    14:00 +36°C° 0.3 mm 1 mps 750 mmHg 64%
    15:00 +36°C° 0.3 mm 1 mps 749 mmHg 64%
    16:00 +34°C° 1.1 mm 1 mps 750 mmHg 69%
    17:00 +33°C° 1.1 mm 1 mps 750 mmHg 74%
    18:00 +32°C° 1.1 mm 1 mps 750 mmHg 80%
    19:00 +31°C° 0.1 mm 1 mps 751 mmHg 82%
    20:00 +31°C° 0.1 mm 2 mps 751 mmHg 84%
    21:00 +30°C° 0.1 mm 2 mps 752 mmHg 86%
    22:00 +30°C° 1.1 mm 2 mps 752 mmHg 88%
    23:00 +29°C° 1.1 mm 2 mps 752 mmHg 91%

    28 September, Thursday

    Time Temperature Precipitation Wind Pressure Humidity
    00:00 +29°C° 1.1 mm 2 mps 751 mmHg 93%
    01:00 +29°C° 1.5 mm 1 mps 751 mmHg 93%
    02:00 +29°C° 1.5 mm 1 mps 751 mmHg 93%
    03:00 +29°C° 1.5 mm 1 mps 751 mmHg 94%
    04:00 +29°C° 2.2 mm 1 mps 751 mmHg 93%
    05:00 +29°C° 2.2 mm 1 mps 751 mmHg 92%
    06:00 +28°C° 2.2 mm 1 mps 751 mmHg 91%
    07:00 +30°C° 0.6 mm 1 mps 752 mmHg 88%
    08:00 +31°C° 0.6 mm 1 mps 752 mmHg 84%
    09:00 +32°C° 0.6 mm 1 mps 753 mmHg 80%
    10:00 +33°C° 0.7 mm 1 mps 752 mmHg 75%
    11:00 +34°C° 0.7 mm 1 mps 752 mmHg 69%
    12:00 +35°C° 0.7 mm 1 mps 751 mmHg 64%
    13:00 +35°C° 0.1 mm 1 mps 750 mmHg 64%
    14:00 +35°C° 0.1 mm 1 mps 749 mmHg 64%
    15:00 +35°C° 0.1 mm 1 mps 749 mmHg 64%
    16:00 +34°C° 0 mm 1 mps 749 mmHg 67%
    17:00 +32°C° 0 mm 1 mps 750 mmHg 70%
    18:00 +31°C° 0 mm 1 mps 750 mmHg 74%
    19:00 +31°C° 0.3 mm 1 mps 751 mmHg 77%
    20:00 +30°C° 0.3 mm 1 mps 751 mmHg 80%
    21:00 +30°C° 0.3 mm 2 mps 752 mmHg 83%
    22:00 +29°C° 0.6 mm 2 mps 752 mmHg 86%
    23:00 +29°C° 0.6 mm 2 mps 752 mmHg 89%

    29 September, Friday

    Time Temperature Precipitation Wind Pressure Humidity
    00:00 +28°C° 0.6 mm 2 mps 752 mmHg 92%
    01:00 +28°C° 2 mm 2 mps 751 mmHg 91%
    02:00 +28°C° 2 mm 2 mps 751 mmHg 91%
    03:00 +28°C° 2 mm 1 mps 751 mmHg 91%
    04:00 +28°C° 1.3 mm 1 mps 751 mmHg 91%
    05:00 +28°C° 1.3 mm 1 mps 752 mmHg 91%
    06:00 +28°C° 1.3 mm 1 mps 752 mmHg 91%
    07:00 +29°C° 0.3 mm 1 mps 752 mmHg 88%
    08:00 +30°C° 0.3 mm 1 mps 753 mmHg 86%
    09:00 +31°C° 0.3 mm 1 mps 753 mmHg 83%
    10:00 +31°C° 0.9 mm 1 mps 753 mmHg 79%
    11:00 +32°C° 0.9 mm 1 mps 752 mmHg 75%
    12:00 +33°C° 0.9 mm 1 mps 751 mmHg 71%
    13:00 +33°C° 0.7 mm 1 mps 751 mmHg 71%
    14:00 +33°C° 0.7 mm 1 mps 750 mmHg 70%
    15:00 +33°C° 0.7 mm 1 mps 749 mmHg 70%
    16:00 +32°C° 0.9 mm 1 mps 750 mmHg 75%
    17:00 +31°C° 0.9 mm 1 mps 750 mmHg 79%
    18:00 +30°C° 0.9 mm 1 mps 750 mmHg 84%
    19:00 +29°C° 0.9 mm 2 mps 751 mmHg 86%
    20:00 +29°C° 0.9 mm 2 mps 752 mmHg 89%
    21:00 +28°C° 0.9 mm 2 mps 752 mmHg 91%
    22:00 +28°C° 0.3 mm 2 mps 752 mmHg 92%
    23:00 +28°C° 0.3 mm 2 mps 752 mmHg 92%

    30 September, Saturday

    Time Temperature Precipitation Wind Pressure Humidity
    00:00 +28°C° 0.3 mm 2 mps 752 mmHg 93%
    01:00 +27°C° 0.1 mm 2 mps 752 mmHg 93%
    02:00 +27°C° 0.1 mm 1 mps 752 mmHg 93%
    03:00 +27°C° 0.1 mm 1 mps 752 mmHg 94%
    04:00 +27°C° 0.4 mm 1 mps 752 mmHg 94%
    05:00 +27°C° 0.4 mm 1 mps 753 mmHg 94%
    06:00 +27°C° 0.4 mm 1 mps 753 mmHg 94%
    07:00 +28°C° 0.6 mm 2 mps 754 mmHg 91%
    08:00 +29°C° 0.6 mm 2 mps 754 mmHg 88%
    09:00 +30°C° 0.6 mm 2 mps 754 mmHg 85%
    10:00 +30°C° 0.9 mm 2 mps 754 mmHg 84%
    11:00 +30°C° 0.9 mm 2 mps 753 mmHg 84%
    12:00 +30°C° 0.9 mm 2 mps 753 mmHg 84%
    13:00 +31°C° 0.9 mm 2 mps 752 mmHg 83%
    14:00 +31°C° 0.9 mm 2 mps 752 mmHg 82%
    15:00 +32°C° 0.9 mm 2 mps 751 mmHg 81%
    16:00 +31°C° 1.8 mm 2 mps 751 mmHg 84%
    17:00 +30°C° 1.8 mm 2 mps 751 mmHg 87%
    18:00 +29°C° 1.8 mm 2 mps 752 mmHg 89%
    19:00 +28°C° 1.5 mm 2 mps 752 mmHg 91%
    20:00 +28°C° 1.5 mm 2 mps 753 mmHg 92%
    21:00 +27°C° 1.5 mm 2 mps 754 mmHg 94%
    22:00 +27°C° 1.4 mm 2 mps 754 mmHg 94%
    23:00 +27°C° 1.4 mm 2 mps 754 mmHg 94%
    Show more